sat.trackr.live / text

‹ back to catalog

KUIPER-00094

NORAD 64839 · 2025-151Z

PAYLOAD ACTIVE UNKNOWN

§ Identity

Operator
Country
US
Launch date
2025-07-16
Launch site
AFETR
Launch vehicle
Mass (kg)
RCS (m²)

External: N2YO · Heavens-Above · Gunter

§ Orbital elements

Epoch: 2026-05-25T04:00:03.998880Z

Period
96.11 min
Inclination
51.8913°
Eccentricity
0.0003779
Mean motion
14.98250544 rev/d
Perigee alt
569.7 km
Apogee alt
574.9 km
Semi-major
6,950.4 km
B*
2.8871e-3
RAAN
270.8352°
Arg perigee
188.8532°
Mean anomaly
162.2639°
Rev number
458

§ Raw data

KUIPER-000941 64839U 25151Z   26145.16671295  .00034599  00000+0  28871-2 0  99962 64839  51.8913 270.8352 0003779 188.8532 162.2639 14.98250544  4585

JSON: /api/v1/satellites/64839 · /tle

For live sub-satellite position, see the globe view (requires WebGL).

§ Visibility from observer

Set your observer location to see the next 7 days of passes ≥ 10°. The values pass through the URL so the page stays shareable.

No JS? Fill the form by hand. The geolocation button needs JavaScript.